Regional Weather Roundup
Issued by NWS

Home | Current Version | Previous Version | Text Only | Print | Product List | Glossary On
Versions: 1 2 3 4 5 6 7 8 9 10 11 12 13 14 15 16 17 18 19 20 21 22 23 24 25 26 27 28 29 30 31 32 33 34 35 36 37 38 39 40 41 42 43 44 45 46 47 48 49 50
000
ASUS43 KLSX 280107
RWRMO

WEATHER SUMMARY FOR MISSOURI
NATIONAL WEATHER SERVICE SPRINGFIELD MO
700 PM CST TUE JAN 27 2015

NOTE: "FAIR" INDICATES FEW OR NO CLOUDS BELOW 12,000 FEET WITH NO
       SIGNIFICANT WEATHER AND/OR OBSTRUCTIONS TO VISIBILITY.
       CURRENT SKY AND/OR WEATHER CONDITIONS ARE NOT AVAILABLE FOR
       CHILLICOTHE AND FARMINGTON.

MOZ001>031-035>038-043-044-053-054-280200-
...NORTHERN AND WESTERN MISSOURI...

CITY           SKY/WX    TMP DP  RH WIND       PRES   REMARKS
KANSAS CTY INT CLEAR     47  31  53 E12       30.09R
KANSAS C DTWN  CLEAR     51  31  46 E5        30.10R
LEE`S SUMMIT   CLEAR     45  29  53 E8        30.11R
ST JOSEPH      CLEAR     47  30  51 E10       30.09R
CHILLICOTHE      N/A     42  32  67 E7        30.14S
KIRKSVILLE     CLEAR     35  32  88 E9        30.17S WCI  28

$$
MOZ066>068-077>081-088>096-101>105-280200-
...SOUTHWEST MISSOURI...

CITY           SKY/WX    TMP DP  RH WIND       PRES   REMARKS
SPRINGFIELD    CLEAR     43  27  53 E5        30.12R
JOPLIN         CLEAR     53  27  36 E3        30.09R

$$
MOZ032>034-039>042-045>050-055>058-069>072-280200-
...CENTRAL MISSOURI...

CITY           SKY/WX    TMP DP  RH WIND       PRES   REMARKS
COLUMBIA       CLEAR     40  32  73 E9        30.16S
JEFFERSON CITY CLEAR     42  32  67 E6        30.17R
ROLLA          CLEAR     35  29  78 E3        30.15R
SEDALIA        CLEAR     44  31  60 E5        30.15R
WHITEMAN AFB   CLEAR     43  31  63 E7        30.12S
WARRENSBURG    CLEAR     43  32  65 E7        30.12S
OSAGE BEACH    CLEAR     46  28  49 E6        30.15S

$$
MOZ051-052-059>065-280200-
...EAST CENTRAL MISSOURI...

CITY           SKY/WX    TMP DP  RH WIND       PRES   REMARKS
ST LOUIS INTL  CLEAR     34  27  75 E9        30.23R WCI  27
SPIRIT OF STL  CLEAR     36  30  79 NE9       30.21R WCI  29
ST CHARLES     CLEAR     31  28  89 E6        30.24R WCI  25

$$
MOZ072>076-082>087-097>100-106>115-280200-
...SOUTH CENTRAL AND SOUTHEAST MISSOURI...

CITY           SKY/WX    TMP DP  RH WIND       PRES   REMARKS
CAPE GIRARDEAU CLEAR     38  30  73 NE6       30.21R
FARMINGTON     CLEAR     36  28  75 MISG      30.22S
POPLAR BLUFF   CLEAR     43  35  73 E3        30.20R
WEST PLAINS    CLEAR     43  27  53 E3        30.16R

$$



USA.gov is the U.S. government's official web portal to all federal, state and local government web resources and services.